Temperature
17 16 16 16 16 15 15 15 15 15 15 15 15 15 15 14 14 14 14 14 14 14 14 14 14 14 14 14 14 14 14 14 14 14 14 14 13 13 13 13 13 13 13
16 16 16 16 15 15 15 15 15 15 15 15 15 15 14 14 14 14 14 14 14 14 14 14 14 14 14 14 14 14 14 14 14 14 14 14 13 13 13 13 13 13 13
16 16 16 16 15 15 15 15 15 15 15 14 14 14 14 14 14 14 14 14 14 14 14 14 14 14 14 14 14 14 14 13 13 13 13 13 13 13 13 13 13 13 13
16 16 16 15 15 15 15 15 15 14 14 14 14 14 14 14 14 14 14 14 14 14 14 14 13 13 13 13 13 13 13 13 13 13 13 13 13 13 13 13 13 13 13
15 15 15 15 15 15 15 14 14 14 14 14 14 14 14 14 14 14 14 14 13 13 13 13 13 13 13 13 13 13 13 13 13 13 13 13 13 13 13 13 13 12 12
15 15 15 15 15 14 14 14 14 14 14 13 13 13 13 13 14 14 13 13 13 13 13 13 13 13 13 13 13 13 13 13 13 13 13 13 13 12 12 12 12 12 12
15 15 15 15 14 14 14 14 14 14 13 13 13 13 13 13 14 14 13 13 13 13 13 13 13 13 13 13 13 13 13 13 13 13 13 12 12 12 12 12 12 12 12
14 14 14 14 14 14 14 14 14 13 13 13 13 13 13 13 13 13 13 13 13 12 12 12 12 12 12 12 12 12 12 12 12 12 12 12 12 12 12 12 12 11 12
14 14 14 14 14 14 13 13 13 13 13 13 13 13 13 13 13 13 13 13 12 12 12 12 12 12 12 12 12 12 12 12 12 12 12 12 12 12 12 11 11 11 12
13 13 13 13 13 13 13 13 13 13 13 12 12 12 12 12 13 13 13 12 12 12 12 12 12 12 12 12 12 12 12 12 12 12 12 12 12 12 12 11 11 11 11
13 13 13 13 13 13 13 12 12 12 12 12 12 12 12 12 12 12 12 12 12 12 12 12 12 12 12 12 12 12 11 11 12 12 12 12 12 11 11 11 11 11 11
13 13 12 12 12 12 12 12 12 12 12 12 12 12 12 12 12 12 12 12 12 11 11 11 11 12 11 11 11 11 11 11 11 11 11 11 11 11 11 11 10 10 10
12 12 12 12 12 12 12 12 12 12 12 12 12 12 12 12 12 12 12 12 11 11 11 11 11 11 11 11 11 11 11 11 11 11 11 11 11 10 10 10 10 10 10
12 12 12 12 12 11 11 11 12 12 12 12 12 12 12 12 12 11 11 11 11 11 11 11 11 11 11 11 11 11 11 11 11 11 10 10 10 10 10 10 10 10 10
11 11 11 11 11 11 11 11 11 11 11 11 11 11 11 11 11 11 11 11 11 11 11 11 11 11 11 11 11 11 10 10 10 10 10 10 10 10 10 10 10 10 10
11 11 11 11 11 11 11 11 11 11 11 10 10 10 10 10 11 11 11 11 11 10 10 10 10 10 11 11 11 10 10 10 10 10 10 10 9 9 9 9 9 9 9
11 11 11 11 11 11 11 11 11 10 10 10 10 10 10 10 10 10 10 10 10 10 10 10 10 10 10 10 10 10 10 10 9 9 9 9 9 9 9 9 9 9 9
11 11 11 10 11 11 10 10 10 10 10 10 10 9 9 9 10 10 10 10 10 10 10 10 9 10 10 10 9 9 9 9 9 9 9 9 9 9 9 9 9 9 9
11 11 10 10 10 11 10 10 10 10 10 10 9 9 9 9 9 9 9 9 9 9 9 9 9 9 9 9 9 9 9 9 9 9 9 8 8 8 8 8 8 8 8
10 10 10 10 10 10 10 10 10 10 10 9 9 9 9 9 9 9 9 9 9 9 9 9 9 9 9 9 9 9 9 9 8 8 8 8 8 8 8 8 8 8 8
10 10 10 10 10 10 10 10 10 10 10 9 9 9 9 9 9 9 9 9 9 9 9 9 9 8 8 8 8 8 8 8 8 8 8 8 8 8 8 8 8 8 8
10 10 10 10 10 10 9 9 9 9 9 9 9 9 9 9 9 9 9 9 9 8 8 8 8 8 8 8 8 8 8 8 8 8 7 7 7 8 8 8 8 8 8
10 10 10 10 10 9 9 9 9 9 9 9 9 9 9 9 9 9 9 9 8 8 8 8 8 8 8 7 7 7 7 7 7 7 7 7 7 8 8 8 8 8 7
10 9 9 9 9 9 9 9 9 9 9 9 9 9 9 8 8 8 8 8 8 8 8 7 7 7 7 7 7 7 7 7 7 7 7 7 7 7 7 7 7 7 7
9 9 9 9 9 9 9 9 9 8 8 8 8 8 8 8 8 8 8 8 8 7 7 7 7 7 7 7 7 7 7 7 7 7 7 6 6 7 7 7 7 7 7
9 9 9 9 8 8 8 8 8 8 8 8 8 8 8 8 8 8 8 7 7 7 7 7 6 6 6 6 6 6 6 6 6 6 6 6 6 6 6 6 6 6 6
Wind_Speed
8 8 7 7 6 6 5 6 5 5 5 5 5 5 4 4 4 4 4 4 4 3 3 3 3 3 2 3 3 3 4 4 4 4 3 2 3 4 3 4 5 6 6
8 7 7 6 6 6 5 5 5 5 5 5 5 5 4 4 4 5 5 4 4 4 4 3 3 2 3 3 3 3 3 4 5 5 4 4 4 4 4 5 4 5 5
8 8 8 7 7 6 6 5 5 5 5 5 5 5 5 5 5 5 5 5 5 5 4 4 4 3 3 3 3 3 3 4 4 5 5 4 4 3 4 5 5 5 6
8 7 7 7 6 6 6 5 5 5 5 5 5 5 5 5 5 5 5 5 5 5 5 5 5 4 4 4 4 4 4 4 4 5 5 4 4 3 4 5 4 5 5
7 7 6 6 6 6 5 5 5 4 4 4 4 4 4 5 4 4 5 5 5 5 5 5 5 4 3 4 4 4 4 5 5 5 5 4 4 4 5 5 5 5 5
6 6 6 6 6 5 5 5 5 4 4 4 4 4 4 3 1 2 5 5 5 5 5 5 5 5 5 5 6 5 6 6 6 6 5 5 5 6 5 5 5 5 5
5 5 5 5 5 5 5 5 4 4 4 4 5 4 4 2 2 3 5 6 5 5 5 5 5 4 4 5 6 7 7 7 7 8 7 7 6 5 6 7 6 6 6
5 4 4 4 4 4 4 4 4 3 3 3 4 4 4 3 3 4 5 7 5 5 5 5 5 4 4 4 5 5 6 5 6 7 7 7 6 5 6 7 7 7 7
4 4 4 4 4 3 3 3 3 3 3 3 3 3 4 3 3 5 6 5 5 5 5 5 5 5 2 3 5 6 6 5 5 5 5 5 5 6 6 6 6 6 6
4 4 4 4 4 3 3 3 3 3 3 3 3 3 4 3 3 4 6 5 5 5 4 5 4 4 2 3 6 6 6 6 5 4 4 5 6 6 8 7 6 7 6
4 4 4 4 4 4 4 4 3 3 3 3 3 3 3 3 3 4 5 5 4 4 4 4 3 3 3 4 6 6 6 6 6 5 5 4 4 4 4 5 5 6 7
4 4 4 4 4 4 4 4 4 4 4 4 4 4 3 3 2 3 4 5 5 4 4 3 1 3 4 6 5 4 6 7 5 4 4 3 4 4 3 3 4 5 6
4 4 4 4 4 4 4 4 4 4 4 4 4 4 3 3 3 6 7 6 6 4 3 2 1 3 5 5 6 6 6 5 4 4 4 4 4 3 3 3 4 4 5
5 5 5 5 4 4 4 4 4 4 5 5 5 4 4 3 2 2 4 5 6 5 3 2 5 6 6 4 4 4 4 4 4 4 4 4 3 3 3 3 3 3 4
5 5 5 5 4 4 4 3 4 3 3 4 4 4 4 3 1 2 2 2 2 2 2 3 3 3 3 3 3 3 3 4 4 4 4 4 4 4 4 3 3 4 4
5 5 4 4 4 4 4 3 1 1 1 2 3 3 2 1 1 1 0 1 2 3 4 4 4 4 4 4 3 3 3 3 4 4 4 4 4 4 4 4 3 4 4
5 5 5 5 4 5 5 4 4 2 2 2 3 3 3 2 2 2 3 2 3 4 5 4 4 4 4 3 3 3 3 3 3 4 4 4 4 4 3 3 3 4 4
6 5 6 5 5 5 5 5 5 4 4 3 4 6 6 6 5 5 4 3 3 4 4 4 4 3 3 3 3 3 3 3 3 3 3 4 4 4 4 4 4 4 5
5 5 5 4 5 5 5 5 5 5 5 4 3 4 7 7 7 6 6 4 4 4 4 4 4 3 3 3 3 3 3 3 3 3 3 3 4 4 4 4 4 4 5
5 5 5 5 5 5 5 5 4 4 5 4 4 4 4 4 4 4 5 4 4 4 3 3 3 2 3 3 3 3 3 3 3 3 3 3 4 4 5 5 5 5 5
4 5 7 6 5 5 5 5 4 4 5 4 4 3 2 4 4 3 3 3 3 3 2 2 2 2 2 3 3 3 3 3 3 3 3 4 4 4 4 4 5 5 4
4 4 4 5 5 5 5 5 5 4 4 4 3 3 5 4 3 3 3 2 2 2 2 2 2 2 2 2 3 3 3 3 3 3 4 4 4 4 4 4 4 4 4
4 4 3 3 4 4 5 4 4 4 4 4 4 3 3 3 3 3 2 2 2 1 1 1 2 2 2 2 3 3 3 3 4 4 5 5 5 4 4 4 4 5 4
3 3 3 3 3 4 3 3 3 4 4 4 4 3 3 2 2 2 2 2 1 1 1 1 1 1 2 2 2 2 3 5 5 5 6 6 5 4 4 4 5 5 5
2 3 3 3 3 3 3 3 3 3 3 3 3 3 3 2 2 2 2 2 2 1 1 1 1 1 1 2 3 3 5 6 6 7 6 5 5 5 5 5 4 5 5
2 2 2 2 2 2 3 2 2 3 3 2 2 3 2 2 2 2 2 2 2 2 2 1 1 1 2 2 2 3 4 5 6 8 7 5 5 4 5 5 5 5 5
Wind_Direction
182 182 181 181 184 187 195 196 195 195 191 194 192 195 200 201 201 205 215 208 220 231 239 236 246 263 261 260 253 253 256 257 258 265 266 254 254 262 264 263 250 240 219
175 171 169 171 176 185 190 193 191 193 198 198 197 198 202 202 204 210 216 215 221 229 236 236 240 233 239 262 267 266 264 259 250 261 265 257 247 246 248 255 255 247 244
171 170 167 173 175 181 184 185 187 191 198 200 201 203 207 208 207 212 216 222 226 230 234 235 234 229 237 247 257 262 261 256 245 252 257 255 252 247 252 253 250 251 250
171 172 171 173 173 174 179 184 187 188 193 199 206 212 213 214 213 215 216 228 232 231 234 238 236 232 235 241 240 249 260 264 250 249 251 250 251 252 255 259 259 246 253
171 173 172 175 174 175 181 186 190 193 197 202 208 215 219 218 219 225 223 228 233 233 234 237 237 242 266 263 261 255 253 255 254 250 253 255 254 256 256 260 267 264 255
169 173 171 177 178 183 184 185 187 192 199 205 213 216 224 234 161 261 259 240 235 235 237 237 234 226 227 236 265 275 273 257 260 261 256 259 260 261 264 263 266 267 264
167 165 169 176 178 182 186 185 188 193 203 211 214 219 226 228 171 222 256 255 248 247 244 244 250 240 230 243 237 234 250 256 260 266 268 269 269 266 263 262 259 264 272
164 166 173 178 174 175 184 186 186 195 203 210 217 220 224 216 182 214 245 241 245 242 242 243 249 254 253 263 258 254 252 250 249 250 262 270 275 275 262 261 265 259 258
171 175 180 182 175 176 184 187 188 194 206 215 225 228 229 220 192 212 234 234 235 239 241 241 245 246 253 275 258 260 262 258 241 240 268 273 278 270 263 260 256 257 262
186 189 186 184 181 185 190 191 191 194 204 215 220 233 235 235 191 210 231 233 233 238 234 231 228 241 230 253 256 260 261 263 263 249 238 244 246 240 230 241 256 260 265
191 188 188 190 194 196 195 198 200 204 206 225 232 237 238 244 199 195 225 239 241 242 243 242 234 169 212 242 258 262 270 275 261 253 247 247 248 248 247 241 253 264 268
188 190 192 199 208 197 196 205 207 210 211 219 223 234 237 229 222 185 195 236 280 255 257 263 254 164 215 243 252 263 266 268 260 257 257 261 266 267 274 272 265 268 274
188 194 198 201 204 203 204 208 208 212 226 228 226 232 234 232 199 177 192 215 241 251 265 320 292 225 229 235 228 235 248 256 260 262 265 272 279 285 281 268 258 255 261
193 198 197 201 201 198 216 222 226 223 229 236 233 237 238 230 238 220 213 210 209 224 249 216 205 224 234 246 233 228 245 260 266 264 268 279 284 275 267 267 267 263 269
200 204 204 204 202 200 208 227 234 240 252 255 247 244 244 237 233 34 286 254 263 268 257 243 245 243 246 244 244 247 255 258 263 268 274 275 274 273 275 274 267 268 269
204 208 212 211 208 208 202 204 105 270 172 232 269 275 277 329 113 123 222 265 274 277 255 244 245 248 254 259 261 258 259 270 275 276 273 271 271 273 278 277 269 269 273
209 212 217 215 213 216 216 217 215 208 181 208 221 223 234 252 247 236 234 231 241 229 236 247 252 257 260 264 270 273 274 272 274 276 278 278 277 274 275 275 272 277 279
214 212 221 222 223 223 225 227 226 226 220 217 209 202 205 213 226 235 231 227 229 220 242 252 256 260 263 266 271 274 275 275 273 275 277 281 281 280 279 276 270 277 281
220 220 222 229 231 229 228 231 233 230 229 224 221 198 194 197 205 217 217 235 236 237 239 250 257 264 270 269 270 275 279 280 288 289 284 279 276 276 277 276 272 266 273
226 220 225 229 231 229 229 232 237 235 230 223 228 229 197 202 218 208 211 225 236 240 245 252 257 262 270 280 277 274 279 282 280 280 283 279 278 275 271 274 278 276 276
235 221 212 223 228 227 228 230 231 236 231 225 229 214 220 232 234 227 225 227 236 240 247 255 255 256 268 273 277 280 278 278 282 284 284 278 275 274 273 272 273 278 285
237 233 225 227 226 223 223 226 225 222 222 224 227 194 174 223 233 232 233 240 246 244 252 258 264 265 274 283 279 272 279 285 287 284 280 278 272 273 276 278 283 289 292
232 228 224 225 224 214 219 224 221 219 217 221 222 217 209 219 219 221 228 229 233 234 247 255 262 277 307 313 308 294 287 295 295 287 280 278 276 276 280 284 288 290 294
229 227 223 218 220 220 218 215 214 219 219 220 219 218 220 215 216 217 230 232 224 227 240 249 255 287 312 315 319 333 346 329 309 295 290 284 281 282 282 281 284 290 288
233 233 228 218 220 221 221 216 213 221 224 220 219 225 226 214 207 208 212 222 227 226 231 233 237 277 304 310 327 346 1 355 337 320 299 285 283 284 285 280 282 286 287
227 225 228 224 215 214 215 217 218 218 220 220 222 227 228 219 213 215 216 220 224 220 224 217 225 274 295 316 349 354 357 351 335 320 302 293 292 293 293 283 282 279 282
Height
1506 1508 1510 1512 1514 1516 1518 1519 1520 1521 1522 1523 1524 1524 1525 1526 1526 1527 1528 1529 1529 1530 1530 1530 1530 1530 1531 1531 1531 1531 1531 1531 1530 1530 1530 1529 1528 1527 1527 1527 1527 1526 1526
1504 1505 1507 1510 1512 1514 1515 1517 1518 1519 1520 1521 1522 1522 1523 1524 1524 1525 1526 1526 1527 1527 1528 1528 1528 1528 1528 1528 1529 1529 1528 1528 1528 1527 1527 1527 1526 1525 1525 1524 1525 1525 1524
1502 1504 1505 1507 1509 1511 1513 1514 1515 1517 1518 1519 1519 1520 1521 1521 1522 1523 1523 1524 1524 1525 1525 1525 1526 1526 1525 1526 1526 1526 1526 1526 1525 1525 1525 1524 1524 1523 1522 1522 1522 1521 1522
1500 1502 1504 1505 1507 1509 1511 1512 1513 1514 1515 1516 1517 1518 1518 1519 1519 1520 1521 1521 1522 1522 1522 1523 1523 1523 1523 1523 1523 1523 1523 1523 1523 1523 1522 1522 1521 1520 1520 1520 1519 1519 1519
1499 1501 1502 1504 1505 1507 1509 1510 1511 1512 1513 1514 1515 1515 1516 1517 1517 1518 1518 1519 1519 1519 1520 1520 1520 1520 1520 1520 1521 1521 1520 1520 1520 1520 1520 1519 1518 1518 1518 1517 1517 1516 1515
1497 1499 1500 1502 1504 1505 1507 1508 1509 1510 1511 1512 1512 1513 1513 1514 1514 1515 1515 1516 1516 1516 1516 1517 1518 1517 1517 1517 1517 1517 1517 1517 1517 1517 1517 1516 1515 1515 1514 1514 1514 1513 1513
1495 1497 1499 1501 1502 1503 1505 1506 1507 1507 1508 1509 1510 1510 1510 1511 1511 1512 1512 1513 1513 1513 1514 1514 1515 1515 1514 1514 1514 1514 1514 1514 1514 1513 1513 1512 1512 1511 1511 1510 1510 1509 1509
1494 1496 1497 1499 1500 1501 1502 1503 1504 1505 1506 1506 1507 1507 1508 1508 1508 1509 1509 1509 1510 1510 1510 1510 1511 1511 1511 1511 1511 1511 1511 1510 1510 1509 1509 1508 1508 1507 1506 1506 1505 1505 1505
1493 1494 1495 1497 1498 1499 1500 1501 1502 1502 1503 1504 1504 1505 1505 1505 1505 1505 1505 1506 1507 1507 1507 1507 1508 1508 1507 1508 1508 1507 1507 1506 1506 1505 1504 1504 1503 1503 1503 1503 1502 1502 1501
1491 1492 1494 1495 1495 1496 1498 1498 1499 1500 1501 1501 1502 1502 1502 1502 1502 1502 1502 1503 1503 1504 1504 1504 1504 1504 1504 1504 1504 1504 1504 1503 1502 1501 1501 1500 1500 1499 1499 1499 1498 1499 1498
1489 1490 1491 1492 1493 1494 1495 1496 1497 1498 1498 1499 1499 1500 1500 1499 1499 1499 1499 1500 1500 1501 1501 1502 1502 1501 1501 1501 1501 1501 1500 1500 1499 1498 1498 1497 1497 1496 1495 1495 1494 1494 1494
1487 1488 1489 1490 1492 1493 1493 1494 1495 1495 1496 1496 1496 1497 1497 1497 1496 1496 1496 1496 1497 1497 1498 1499 1499 1498 1498 1498 1497 1497 1497 1496 1496 1496 1495 1494 1494 1493 1492 1491 1490 1489 1489
1484 1485 1486 1487 1488 1489 1490 1491 1491 1492 1493 1494 1494 1494 1494 1494 1494 1493 1493 1493 1494 1494 1495 1495 1495 1495 1495 1495 1494 1494 1494 1494 1494 1493 1492 1491 1490 1489 1488 1487 1486 1485 1485
1481 1482 1483 1484 1485 1486 1486 1488 1489 1489 1490 1490 1490 1491 1491 1491 1491 1491 1491 1491 1491 1492 1492 1492 1492 1492 1492 1491 1491 1491 1491 1491 1490 1489 1489 1488 1487 1486 1485 1484 1483 1483 1482
1479 1480 1481 1482 1482 1483 1483 1484 1486 1486 1486 1487 1487 1488 1488 1487 1487 1487 1488 1488 1488 1489 1489 1489 1489 1489 1489 1489 1489 1488 1488 1487 1487 1486 1485 1484 1484 1483 1482 1481 1480 1479 1479
1476 1478 1479 1479 1480 1481 1481 1481 1481 1483 1482 1483 1483 1483 1483 1483 1483 1483 1484 1484 1485 1485 1486 1486 1487 1487 1487 1486 1486 1485 1485 1484 1483 1483 1482 1482 1481 1480 1479 1478 1478 1477 1476
1474 1475 1476 1477 1477 1478 1478 1478 1478 1479 1478 1479 1479 1479 1479 1479 1479 1480 1480 1481 1481 1482 1483 1483 1483 1483 1483 1483 1483 1483 1482 1481 1480 1480 1479 1479 1478 1477 1476 1475 1475 1474 1473
1471 1472 1473 1473 1474 1474 1475 1475 1475 1475 1475 1475 1475 1475 1475 1476 1476 1477 1477 1477 1478 1479 1479 1480 1480 1480 1480 1480 1480 1480 1479 1478 1477 1477 1476 1476 1475 1474 1473 1473 1472 1471 1470
1468 1469 1469 1470 1470 1471 1472 1472 1472 1473 1473 1473 1472 1472 1472 1473 1473 1474 1474 1475 1476 1476 1477 1477 1477 1477 1477 1477 1477 1477 1476 1475 1474 1474 1473 1473 1472 1471 1471 1470 1469 1468 1467
1464 1465 1465 1466 1467 1467 1468 1469 1469 1469 1469 1469 1470 1470 1470 1471 1471 1472 1472 1472 1473 1473 1474 1474 1474 1474 1474 1475 1474 1474 1474 1473 1472 1471 1471 1470 1469 1469 1468 1467 1466 1465 1464
1461 1462 1462 1463 1464 1464 1465 1465 1465 1466 1466 1466 1466 1467 1467 1469 1469 1470 1470 1470 1471 1471 1471 1472 1472 1472 1472 1472 1472 1471 1471 1470 1470 1469 1468 1467 1467 1466 1466 1465 1464 1463 1461
1458 1459 1459 1460 1460 1461 1461 1462 1462 1463 1462 1462 1464 1464 1464 1466 1467 1467 1468 1468 1468 1468 1469 1469 1469 1470 1469 1469 1469 1469 1468 1468 1467 1466 1465 1465 1464 1464 1463 1462 1461 1460 1458
1456 1456 1456 1457 1457 1458 1458 1459 1459 1459 1460 1460 1461 1461 1462 1463 1464 1464 1465 1466 1466 1466 1467 1467 1467 1467 1467 1467 1466 1466 1466 1465 1464 1463 1463 1462 1461 1461 1460 1459 1458 1457 1456
1453 1453 1453 1454 1454 1455 1455 1456 1456 1456 1457 1458 1459 1459 1460 1461 1462 1462 1463 1464 1464 1464 1465 1465 1465 1465 1464 1464 1464 1464 1463 1462 1461 1460 1459 1459 1458 1458 1457 1457 1456 1455 1453
1451 1451 1451 1451 1452 1452 1452 1453 1454 1454 1455 1455 1456 1457 1458 1459 1460 1460 1461 1462 1462 1462 1462 1462 1462 1462 1462 1461 1461 1460 1459 1458 1457 1457 1456 1456 1456 1455 1454 1454 1453 1452 1451
1448 1448 1449 1449 1449 1449 1450 1451 1451 1452 1453 1453 1454 1455 1456 1456 1457 1458 1459 1460 1460 1460 1460 1460 1459 1459 1459 1458 1457 1456 1455 1455 1454 1453 1453 1452 1452 1452 1451 1450 1449 1449 1448